Regional Weather Roundup
Issued by NWS

Home | Current Version | Previous Version | Graphics & Text | Print | Product List | Glossary On
Versions: 1 2 3 4 5 6 7 8 9 10 11 12 13 14 15 16 17 18 19 20 21 22 23 24 25 26 27 28 29 30 31 32 33 34 35 36 37 38 39 40 41 42 43 44 45 46 47 48 49 50
000
ASUS43 KMPX 192110
RWRMN
WEATHER ROUNDUP FOR MINNESOTA
NATIONAL WEATHER SERVICE TWIN CITIES/CHANHASSEN MN
300 PM CST SUN FEB 19 2017


NOTE: "FAIR" INDICATES FEW OR NO CLOUDS BELOW 12,000 FEET WITH NO
SIGNIFICANT WEATHER AND/OR OBSTRUCTIONS TO VISIBILITY. N/A MEANS
CURRENT SKY AND/OR WEATHER CONDITIONS ARE NOT AVAILABLE.

MNZ060>063-068>070-192200-
   Twin Cities Metro

CITY           SKY/WX    TMP DP  RH WIND       PRES   REMARKS
TWIN CITIES    CLOUDY    58  40  51 SE15      29.88F
ST PAUL        CLOUDY    57  41  55 SE10      29.90S
CRYSTAL        PTSUNNY   68  38  33 SE14      29.87S
BLAINE         PTSUNNY   61  39  44 SE13G18   29.88S
LAKEVILLE      PTSUNNY   55  45  67 SE12G18   29.88S
EDEN PRAIRIE   MOSUNNY   59  42  53 SE13      29.85F
SOUTH ST PAUL  CLOUDY    57  40  52 SE8       29.89S
LAKE ELMO      FAIR      55  41  58 SE7       29.91S
$$
MNZ001>005-007-008-013>017-022>024-027-028-192200-
   Northwest Minnesota

CITY           SKY/WX    TMP DP  RH WIND       PRES   REMARKS
BEMIDJI        MOSUNNY   44  32  61 SE14      29.78F
HALLOCK        MOSUNNY   43  34  70 E17G23    29.69F
ROSEAU         CLOUDY    37  34  87 E6        29.78F
WARROAD        CLOUDY    39  34  81 E13       29.81F
THIEF RVR FALL CLOUDY    41  33  73 E22       29.71F
CROOKSTON      MOSUNNY   46  36  66 SE16      29.67F
FOSSTON        CLOUDY    46  34  61 SE14G21   29.71F
DETROIT LAKES  CLOUDY    48  37  66 SE16G22   29.73S
MOORHEAD       SUNNY     55  45  67 SE20G25   29.65F
PARK RAPIDS    MOSUNNY   49  32  52 SE13      29.76F
MAHNOMEN       FAIR      49  37  62 SE21G26   29.69S
$$
MNZ006-009>011-018-025>026-192200-
   North Central Minnesota

CITY           SKY/WX    TMP DP  RH WIND       PRES   REMARKS
BAUDETTE       CLOUDY    39  30  70 E10       29.82F
FLAG ISLAND    CLOUDY    43  28  56 E10G17    29.83F
INTL FALLS     CLOUDY    44  30  57 E10       29.89F
WASKISH        CLOUDY    50  30  46 E10       29.81F
BIG FORK       CLOUDY    48  30  49 E7        29.87F
LONGVILLE      MOSUNNY   52  30  43 SE7       29.82F
GRAND RAPIDS   MOSUNNY   53  28  38 SE13G21   29.87F
CRANE LAKE     CLOUDY    48  28  46 CALM      29.95S
ORR            CLOUDY    48  27  43 CALM      29.89F
COOK           CLOUDY    48  28  46 E5        29.92F
WALKER         FAIR      46  32  57 E5        29.80F
$$
MNZ012-019>021-037-192200-
   Northeast Minnesota

CITY           SKY/WX    TMP DP  RH WIND       PRES   REMARKS
DULUTH         CLOUDY    41  31  67 E12       29.95R
ELY            CLOUDY    48  27  43 SE7       29.95R
HIBBING        CLOUDY    46  28  49 SE14      29.91S
EVELETH        CLOUDY    48  21  34 S6        29.95R
DULUTH HARBOR  MOSUNNY   37  34  87 CALM      30.00S
TWO HARBORS    CLOUDY    45  32  61 NE9       29.97R
GRAND MARAIS     N/A     38  31  76 NE9       30.05R
G MARAIS ARPRT CLOUDY    36  25  64 SE3       30.02R
$$
MNZ029>031-032-039>041-046>048-054>057-064-192200-
   West Central Minnesota

CITY           SKY/WX    TMP DP  RH WIND       PRES   REMARKS
FERGUS FALLS   CLOUDY    55  45  67 SE18      29.71F
WHEATON        CLOUDY    55  46  71 SE22      29.67F
MORRIS         PTSUNNY   55  48  76 SE21G28   29.70S
ALEXANDRIA     CLOUDY    52  43  71 SE20G29   29.76F
ELBOW LAKE     FAIR      55  45  69 E14G26    29.71S
WADENA         MOSUNNY   50  39  66 SE15      29.75F
GLENWOOD       MOSUNNY   54  45  71 SE16      29.77S
APPLETON       CLOUDY    61  48  63 SE14G20   29.71F
BENSON         MOSUNNY   61  45  55 S16G24    29.76S
ORTONVILLE     MOSUNNY   57  50  77 SE17G23   29.67F
WILLMAR        FAIR      57  50  77 SE8       29.78F
$$
MNZ033>034-036-042>043-049>051-058-059-192200-
   Central Minnesota

CITY           SKY/WX    TMP DP  RH WIND       PRES   REMARKS
ST CLOUD       MOSUNNY   57  40  52 SE16      29.82F
SAUK CENTRE    FAIR      54  44  67 SE17      29.79S
PAYNESVILLE    PTSUNNY   55  42  62 SE15G21   29.80F
AITKIN         CLOUDY    55  28  35 E7        29.84F
PINE RIVER     MOSUNNY   48  36  61 SE12      29.84F
BRAINERD       MOSUNNY   51  35  54 E7        29.83F
STAPLES        MOSUNNY   54  37  54 SE14G20   29.78F
LONG PRAIRIE   FAIR      52  41  66 E7        29.80R
LITTLE FALLS   MOSUNNY   55  36  47 SE13      29.81F
LITCHFIELD     MOSUNNY   57  46  67 SE15      29.82S
BUFFALO        MOSUNNY   59  41  50 E12       29.85F
MAPLE LAKE     PTSUNNY   58  43  55 SE7       29.85S
HUTCHINSON     MOSUNNY   59  48  66 E13       29.83S
$$
MNZ037-044-045-052-053-192200-
   East Central Minnesota

CITY           SKY/WX    TMP DP  RH WIND       PRES   REMARKS
PRINCETON      MOSUNNY   61  36  39 SE9       29.86S
MORA           MOSUNNY   55  36  47 SE10      29.90S
CAMBRIDGE      MOSUNNY   61  41  48 SE9       29.85F
RUSH CITY      MOSUNNY   57  37  47 SE8       29.89F
MOOSE LAKE     MOSUNNY   55  32  41 E6        29.89F
HINCKLEY       FAIR      59  34  38 SE9       29.90F
CLOQUET        MOSUNNY   43  28  56 E9        29.94S
MCGREGOR       CLOUDY    54  32  43 SE8       29.89S
$$
MNZ071>073-080-081-089-090-097-098-192200-
   Southwest Minnesota

CITY           SKY/WX    TMP DP  RH WIND       PRES   REMARKS
MONTEVIDEO     CLOUDY    59  52  77 S13       29.75F
GRANITE FALLS  MOSUNNY   59  51  74 E16       29.76S
CANBY          CLOUDY    63  51  64 SE17G29   29.71F
MARSHALL       CLOUDY    65  51  60 S25G31    29.73F
REDWOOD FALLS  MOSUNNY   60  49  66 SE17      29.78S
OLIVIA         PTSUNNY   55  46  71 SE14G20   29.78F
PIPESTONE      MOSUNNY   63  48  59 S24       29.72S
WINDOM         MOSUNNY   63  52  67 SE21G26   29.78F
WORTHINGTON    MOSUNNY   61  52  72 SE15G22   29.77F
JACKSON        CLOUDY    59  50  72 S15       29.81F
TRACY          MOSUNNY   64  52  65 S17G23    29.75F
SLAYTON        MOSUNNY   61  51  70 S23       29.77S
$$
MNZ065>067-074>077-082>085-091>093-192200-
   South Central Minnesota

CITY           SKY/WX    TMP DP  RH WIND       PRES   REMARKS
MANKATO          N/A     59  49  69 SE15      29.84F
NEW ULM        CLOUDY    61  48  63 S16       29.81R
ST JAMES       MOSUNNY   59  52  77 SE14      29.83R
FAIRMONT       PTSUNNY   60  53  77 SE17      29.82F
GLENCOE        PTSUNNY   58  49  71 E13G18    29.83S
FARIBAULT      PTSUNNY   61  46  59 SE12      29.88S
OWATONNA       MOSUNNY   59  45  58 SE18      29.88R
WASECA         MOSUNNY   55  46  71 SE16      29.87F
ALBERT LEA     SUNNY     57  48  72 SE14      29.88S
$$
MNZ078>079-086>088-094>096-192200-
   Southeast Minnesota

CITY           SKY/WX    TMP DP  RH WIND       PRES   REMARKS
ROCHESTER      SUNNY     55  44  66 SE14      29.92F
RED WING       MOSUNNY   57  36  44 SE12      29.91F
STANTON        MOSUNNY   58  42  55 SE9G16    29.88S
DODGE CENTER   CLOUDY    55  46  71 SE15      29.91S
WINONA         MOSUNNY   57  36  44 SE8       29.95F
AUSTIN         SUNNY     57  46  67 SE10      29.90S
PRESTON        SUNNY     57  42  55 SE10      29.94S
$$
ABBREVIATIONS USED IN REMARKS
   TC - TEMPERATURES IN CELSIUS
  WCI - WIND CHILL INDEX
   HX - HEAT INDEX
  VSB - VISIBILITY
$$




USA.gov is the U.S. government's official web portal to all federal, state and local government web resources and services.